Date String (YYYY-MM-DD hh:mm:ss) UTC,Instrument flags,absolute air pressure of the measurement (hPa),sample flow rate (lpm),inlet stack bypass flow (lpm),air temperature of the measurement (°C),ambient temperature measured by the external sensor (°C),aerosol sample conditioner tube jacket temperature (°C),OPC LED temperature (°C),internal box temperature (°C),relative humidity of the measurement (%),span deviation,mass concentration of particles derived from Lorenz-Mie calculation of OPC scattering (μg/m³),mass concentration of particles derived from Lorenz-Mie calculation of OPC scattering (μg/m³),mass concentration of particles derived from Lorenz-Mie calculation of OPC scattering (μg/m³)
DateTimeUTC,F1_M11,P_M11,Q1_M11,Q2_M11,T1_M11,T2_M11,T3_M11,T4_M11,T5_M11,U1_M11,ZSPAN_M11,X0_M11,X2_M11,X1_M11
2023-07-26 13:00:00,SystemResetWarning,0834.7,5.00,000.00,029.2,027.8,000.0,037.6,030.9,25.4,0000.0,0009.30,0003.47,0002.46
2023-07-26 13:01:00,SystemResetWarning,0834.7,5.00,000.00,029.3,028.0,000.0,037.6,031.0,25.4,0000.0,0010.06,0003.55,0002.48
2023-07-26 13:02:00,SystemResetWarning,0834.8,5.01,000.00,029.3,028.1,000.0,037.7,031.0,25.2,0000.0,0011.05,0003.65,0002.49
2023-07-26 13:03:00,SystemResetWarning,0834.9,4.98,000.00,029.3,027.3,000.0,037.6,030.9,25.3,0000.0,0011.23,0003.69,0002.51
2023-07-26 13:04:00,SystemResetWarning,0834.7,5.01,000.00,029.3,025.7,000.0,037.5,030.7,25.5,0000.0,0011.50,0003.74,0002.52
2023-07-26 13:05:00,SystemResetWarning,0834.7,5.01,000.00,029.2,025.6,000.0,037.5,030.5,25.8,0000.0,0011.67,0003.75,0002.53
2023-07-26 13:06:00,SystemResetWarning,0834.8,5.00,000.00,029.1,025.8,000.0,037.5,030.4,25.8,0000.0,0011.68,0003.76,0002.54
2023-07-26 13:07:00,SystemResetWarning,0834.8,5.00,000.00,029.1,026.2,000.0,037.5,030.5,25.8,0000.0,0011.27,0003.77,0002.57
2023-07-26 13:08:00,SystemResetWarning,0835.3,5.00,000.00,029.1,026.6,000.0,037.5,030.6,25.7,0000.0,0010.17,0003.79,0002.60
2023-07-26 13:09:00,SystemResetWarning,0835.4,5.00,000.00,029.1,026.9,000.0,037.6,030.7,25.8,0000.0,0010.17,0003.81,0002.63
2023-07-26 13:10:00,SystemResetWarning,0835.0,5.00,000.00,029.1,027.2,000.0,037.6,030.7,25.8,0000.0,0010.21,0003.83,0002.68
2023-07-26 13:11:00,SystemResetWarning,0834.9,4.98,000.00,029.2,027.5,000.0,037.6,030.8,25.9,0000.0,0009.37,0003.77,0002.70
2023-07-26 13:12:00,SystemResetWarning,0834.9,4.99,000.00,029.2,027.7,000.0,037.6,030.9,25.9,0000.0,0008.68,0003.74,0002.75
2023-07-26 13:13:00,SystemResetWarning,0834.9,5.01,000.00,029.2,027.9,000.0,037.6,030.9,26.0,0000.0,0008.09,0003.74,0002.78
2023-07-26 13:14:00,SystemResetWarning,0835.0,5.00,000.00,029.3,028.0,000.0,037.6,031.0,26.6,0000.0,0008.06,0003.78,0002.83
2023-07-26 13:15:00,SystemResetWarning,0834.9,4.99,000.00,029.3,028.1,000.0,037.7,031.0,26.5,0000.0,0007.97,0003.78,0002.89
2023-07-26 13:16:00,SystemResetWarning,0834.9,5.00,000.00,029.3,026.9,000.0,037.6,030.9,25.7,0000.0,0008.01,0003.84,0002.95
2023-07-26 13:17:00,SystemResetWarning,0835.0,5.00,000.00,029.3,025.6,000.0,037.5,030.7,25.1,0000.0,0008.15,0003.89,0003.01
2023-07-26 13:18:00,SystemResetWarning,0834.9,5.00,000.00,029.2,025.6,000.0,037.4,030.5,25.0,0000.0,0008.35,0003.96,0003.05
2023-07-26 13:19:00,SystemResetWarning,0834.8,5.01,000.00,029.1,025.9,000.0,037.5,030.4,25.1,0000.0,0008.40,0004.01,0003.10
2023-07-26 13:20:00,SystemResetWarning,0834.9,5.01,000.00,029.1,026.3,000.0,037.5,030.5,25.1,0000.0,0008.34,0003.98,0003.13
2023-07-26 13:21:00,SystemResetWarning,0834.9,5.00,000.00,029.1,026.6,000.0,037.5,030.6,25.6,0000.0,0008.15,0003.99,0003.15
2023-07-26 13:22:00,SystemResetWarning,0834.9,5.00,000.00,029.1,027.0,000.0,037.6,030.7,26.6,0000.0,0008.22,0004.04,0003.18
2023-07-26 13:23:00,SystemResetWarning,0835.0,4.99,000.00,029.1,027.2,000.0,037.6,030.7,25.9,0000.0,0008.31,0004.03,0003.20
2023-07-26 13:24:00,SystemResetWarning,0835.0,5.00,000.00,029.2,027.5,000.0,037.6,030.8,25.4,0000.0,0008.25,0004.00,0003.22
2023-07-26 13:25:00,SystemResetWarning,0835.0,5.00,000.00,029.2,027.7,000.0,037.6,030.9,24.9,0000.0,0008.88,0004.03,0003.24
2023-07-26 13:26:00,SystemResetWarning,0835.0,5.00,000.00,029.2,027.9,000.0,037.6,030.9,25.4,0000.0,0009.08,0004.09,0003.25
2023-07-26 13:27:00,SystemResetWarning,0835.0,5.00,000.00,029.3,028.0,000.0,037.6,031.0,25.8,0000.0,0009.05,0004.05,0003.25
2023-07-26 13:28:00,SystemResetWarning,0835.0,5.00,000.00,029.3,028.0,000.0,037.6,031.0,24.7,0000.0,0009.06,0004.08,0003.26
2023-07-26 13:29:00,SystemResetWarning,0834.9,4.99,000.00,029.3,026.5,000.0,037.5,030.8,24.3,0000.0,0009.11,0004.10,0003.28
2023-07-26 13:30:00,SystemResetWarning,0834.9,5.01,000.00,029.2,025.6,000.0,037.5,030.7,24.2,0000.0,0009.31,0004.13,0003.28
2023-07-26 13:31:00,SystemResetWarning,0835.0,5.01,000.00,029.2,025.7,000.0,037.5,030.5,24.0,0000.0,0009.36,0004.16,0003.28
2023-07-26 13:32:00,SystemResetWarning,0835.0,4.99,000.00,029.1,026.0,000.0,037.5,030.4,23.7,0000.0,0009.40,0004.17,0003.28
2023-07-26 13:33:00,SystemResetWarning,0835.0,4.99,000.00,029.1,026.4,000.0,037.5,030.5,23.4,0000.0,0009.25,0004.13,0003.29
2023-07-26 13:34:00,SystemResetWarning,0835.0,5.00,000.00,029.1,026.7,000.0,037.5,030.6,23.4,0000.0,0009.08,0004.13,0003.29
2023-07-26 13:35:00,SystemResetWarning,0835.1,5.01,000.00,029.1,027.0,000.0,037.6,030.7,23.4,0000.0,0009.07,0004.18,0003.29
2023-07-26 13:36:00,SystemResetWarning,0835.1,5.01,000.00,029.1,027.3,000.0,037.6,030.7,24.3,0000.0,0008.36,0004.16,0003.30
2023-07-26 13:37:00,SystemResetWarning,0835.1,4.99,000.00,029.2,027.5,000.0,037.6,030.8,27.3,0000.0,0007.99,0004.10,0003.30
2023-07-26 13:38:00,SystemResetWarning,0835.2,5.00,000.00,029.2,027.7,000.0,037.6,030.9,25.5,0000.0,0007.92,0004.13,0003.30
2023-07-26 13:39:00,SystemResetWarning,0835.2,5.00,000.00,029.2,027.9,000.0,037.6,030.9,25.5,0000.0,0008.55,0004.17,0003.30
2023-07-26 13:40:00,SystemResetWarning,0835.2,5.00,000.00,029.3,028.1,000.0,037.6,031.0,25.2,0000.0,0009.11,0004.17,0003.29
2023-07-26 13:41:00,SystemResetWarning,0835.2,5.00,000.00,029.3,027.8,000.0,037.6,031.0,24.8,0000.0,0008.81,0004.10,0003.28
2023-07-26 13:42:00,SystemResetWarning,0835.1,5.00,000.00,029.3,026.3,000.0,037.5,030.9,24.4,0000.0,0008.81,0004.08,0003.26
2023-07-26 13:43:00,SystemResetWarning,0835.1,5.01,000.00,029.2,025.7,000.0,037.4,030.7,24.5,0000.0,0009.01,0004.08,0003.25
2023-07-26 13:44:00,SystemResetWarning,0835.1,5.01,000.00,029.2,025.8,000.0,037.5,030.5,24.9,0000.0,0009.08,0004.06,0003.22
2023-07-26 13:45:00,SystemResetWarning,0835.1,5.00,000.00,029.1,026.2,000.0,037.5,030.5,24.9,0000.0,0009.55,0004.07,0003.20
2023-07-26 13:46:00,SystemResetWarning,0835.1,5.00,000.00,029.1,026.5,000.0,037.5,030.6,24.7,0000.0,0009.73,0004.03,0003.17
2023-07-26 13:47:00,SystemResetWarning,0835.1,5.00,000.00,029.1,026.9,000.0,037.6,030.7,24.8,0000.0,0009.87,0003.99,0003.15
2023-07-26 13:48:00,SystemResetWarning,0835.1,5.00,000.00,029.2,027.2,000.0,037.6,030.8,24.8,0000.0,0010.11,0004.00,0003.12
2023-07-26 13:49:00,SystemResetWarning,0835.2,5.01,000.00,029.2,027.5,000.0,037.6,030.8,24.8,0000.0,0010.05,0003.95,0003.08
2023-07-26 13:50:00,SystemResetWarning,0835.2,5.00,000.00,029.2,027.7,000.0,037.6,030.9,24.6,0000.0,0009.40,0003.89,0003.05
2023-07-26 13:51:00,SystemResetWarning,0835.3,4.99,000.00,029.2,027.9,000.0,037.6,030.9,24.5,0000.0,0009.69,0003.86,0003.03
2023-07-26 13:52:00,SystemResetWarning,0835.3,5.01,000.00,029.3,028.0,000.0,037.7,031.0,24.5,0000.0,0010.63,0003.90,0003.03
2023-07-26 13:53:00,SystemResetWarning,0835.3,5.00,000.00,029.3,027.5,000.0,037.6,031.0,24.4,0000.0,0010.84,0003.91,0003.02
2023-07-26 13:54:00,SystemResetWarning,0835.2,5.00,000.00,029.3,025.6,000.0,037.5,030.7,24.5,0000.0,0011.10,0003.94,0003.03
2023-07-26 13:55:00,SystemResetWarning,0835.2,5.01,000.00,029.2,024.7,000.0,037.4,030.5,24.7,0000.0,0011.08,0003.96,0003.04
2023-07-26 13:56:00,SystemResetWarning,0835.2,5.01,000.00,029.1,024.8,000.0,037.4,030.3,24.9,0000.0,0010.81,0003.97,0003.05
2023-07-26 13:57:00,SystemResetWarning,0835.2,4.99,000.00,029.0,025.2,000.0,037.4,030.2,25.1,0000.0,0010.99,0003.98,0003.09
2023-07-26 13:58:00,SystemResetWarning,0835.2,4.99,000.00,028.9,025.7,000.0,037.4,030.3,25.2,0000.0,0011.08,0004.03,0003.11
2023-07-26 13:59:00,SystemResetWarning,0835.2,4.99,000.00,028.9,026.2,000.0,037.4,030.4,25.2,0000.0,0011.29,0004.10,0003.13
